Location: Binningen
(47.7924°N, 8.7261°E)
Time: 08:22:11
(UTC+00:00)

Cosmos 2221 Rocket - Pass Details

Date: 17 May 2021
Orbit: 619 x 649 km, 82.5° (Epoch: 20 June)

Event Time Altitude Azimuth Distance (km) Brightness Sun altitude
Exits shadow 23:01:48 56° 121° (ESE) 775 3.8 -22.5°
Maximum altitude 23:02:14 59° 95° (E) 754 3.8 -22.5°
Drops below altitude 10° 23:06:43 10° 17° (NNE) 2,057 7.2 -22.6°
Sets 23:09:00 0° 13° (NNE) 2,969 8.3 -22.6°
